CZ-6A DEB

Satellite information

Favourite Embed

Satellite Type and Status

DEBRISIN ORBIT

Key statistics

Satellite CZ-6A DEB at a glance.

Uptime

1072

Days in orbit

Revolutions

≈ 14.2

Per day

Orbit

SSO

Sun Synchronous Orbit

Inclination

98.8

Latest

Satellite identification and parameters

Extended collection of information and parameters for CZ-6A DEB.

Object identification

Identified? True

Debris? True

Object name: CZ-6A DEB

International designator: 2022-151UH

Object number (NORAD): 54992

Object ID (CCSDS): 54992

Country: PEOPLES REPUBLIC OF CHINA (PRC)

Current information (Y/N): Y

RCS size: SMALL

Orbital parameters

Period: 101.133 minutes

Inclination: 98.794 deg

SMA: 7190.416 km

Apoapsis: 830.352 km

Periapsis: 794.211 km

RAAN: 301.5586 deg

Eccentricy: 0.00251316

Argument of periapsis: 227.3716 deg

Mean anomaly: 132.5344 deg

Mean motion: 14.23874507 rev/day

Mean motion (dot): 0.00005513 rev/day2

B* drag term: 0.002417166 1/REarth

Two-line elements (TLE)

Creation date: Oct. 18, 2025, 2:17 a.m.

Reference frame: TEME

Reference center: EARTH

Epoch: Oct. 17, 2025, 10:39 p.m. UTC

TLE line 0: 0 CZ-6A DEB

TLE line 1: 1 54992U 22151UH 25290.94433421 .00005513 00000-0 24172-2 0 9990

TLE line 2: 2 54992 98.7940 301.5586 0025132 227.3716 132.5344 14.23874507150488

Live tracking on map

Real-time ground track for satellite CZ-6A DEB.

In-orbit conjunctions

A list of the most updated potential collisions computed for object CZ-6A DEB.

Target Orbit TCA Probability of collision Miss distance Type
CZ-6A R/B DEB LEO 2025-05-14 00:01:34 0.001442403 66.0 (m) DEBRIS
SL-16 R/B LEO 2025-05-08 03:59:36 0.0001829047 398.0 (m) ROCKET BODY
SL-3 R/B LEO 2025-03-30 04:06:58 0.0001501443 408.0 (m) ROCKET BODY

Associated space launch

Chinese satellite reported for atmospheric/ocean/environmental/spatial parameter research purposes, details TBD.

CZ-6A DEB was lifted into orbit during the mission ‘Long March 6A | Yunhai 3’, on board a Long March 6A space rocket.

The launch took place on Nov. 11, 2022, 10:52 p.m. from Launch Complex 9A.

For more information about the launch, click the button.

Launch to space Long March 6A | Yunhai 3
Long March 6A | Yunhai 3

Agency: N/A

Status: Launch Successful

Launch date: Nov. 11, 2022, 10:52 p.m. UTC

Rocket: Long March 6A

Launch pad: Launch Complex 9A

Location: Taiyuan Satellite Launch Center, People's Republic of China

...

Latest news about this satellite

There are no fresh news available about this satellite. Check back as we update our databases every day.


Newsletter sign-up

Weekly statistics, charts and insights to help you stay on top of the space industry.